Lid_Strength_Index
18 19 21 20 18 17 18 18 19 19 16 18 20 21 19 19 17 18 19 20 19 18 17 16 16 16 16 16 16 16 16 16 16 16 16 17 17 16 16 15 15 15 14 14
19 22 20 17 16 17 18 19 19 17 17 18 20 20 18 18 19 18 19 19 18 18 18 17 16 16 17 17 17 16 16 16 16 16 16 16 16 16 15 14 14 13 13 13
22 21 18 17 19 18 18 19 19 19 17 19 20 19 20 19 18 18 17 17 17 17 16 16 15 15 15 15 15 14 13 13 13 13 12 13 13 13 13 13 12 12 11 11
21 19 19 19 19 18 19 17 17 17 19 25 18 25 19 20 20 19 18 18 17 17 16 16 16 16 15 15 14 14 13 13 12 12 13 13 14 15 14 13 13 13 12 12
22 22 21 20 19 18 18 17 17 17 19 22 21 27 22 20 20 19 18 17 17 16 16 16 16 15 15 14 15 14 14 13 13 13 13 14 14 14 13 13 13 13 13 12
22 21 21 20 19 18 17 18 18 19 21 29 25 25 23 21 19 19 17 17 16 16 16 15 16 15 15 15 14 14 14 13 13 13 13 14 14 14 14 14 14 14 14 13
22 22 21 20 20 19 18 20 29 28 28 27 23 26 21 19 18 17 17 16 16 16 16 16 16 17 16 16 15 14 14 14 13 13 13 13 14 14 14 14 14 14 14 14
24 23 22 20 22 22 21 22 27 32 29 27 24 27 20 19 17 16 16 16 16 16 16 16 15 16 16 16 16 15 14 14 14 14 14 14 14 14 14 14 15 15 15 14
24 23 22 20 21 21 22 23 22 32 39 31 25 22 19 19 17 17 17 17 17 16 16 15 15 16 16 16 16 15 15 14 14 14 14 14 14 14 14 14 15 15 14 14
21 24 22 21 21 21 22 21 26 29 30 32 27 26 21 20 19 18 17 17 17 17 16 16 15 15 15 15 15 16 15 15 14 14 14 14 14 14 14 15 15 14 14 14
21 22 24 22 23 24 24 25 25 26 27 30 31 24 20 18 18 18 16 16 16 16 16 16 15 15 15 16 16 16 16 16 15 15 15 15 14 14 14 14 14 14 14 14
20 23 28 24 24 23 23 23 23 27 28 29 28 26 18 18 18 18 17 16 16 16 16 16 16 16 17 16 16 16 16 16 15 15 15 15 14 14 15 15 14 14 14 14
20 25 28 24 23 23 25 23 22 27 29 30 28 23 20 20 19 18 18 18 17 16 16 16 17 16 16 16 16 16 16 16 15 15 15 15 15 15 15 15 14 14 14 14
17 25 22 21 21 23 26 24 23 25 30 27 24 20 20 20 20 18 18 18 18 16 15 16 16 16 15 15 15 15 15 15 15 15 15 15 15 15 15 14 14 14 14 14
21 25 24 25 23 24 24 23 23 23 21 23 19 21 19 17 18 17 17 18 18 17 17 16 15 15 15 15 15 15 15 15 15 16 15 15 14 15 15 14 14 14 14 14
22 27 27 26 26 25 24 22 23 22 21 21 20 21 17 19 20 19 18 18 18 17 17 16 15 15 15 15 15 15 15 15 15 16 15 15 15 15 15 15 14 14 14 14
24 26 25 23 28 29 26 24 22 21 22 20 22 18 18 19 19 18 18 18 18 17 16 16 16 15 15 15 15 15 15 16 16 16 15 15 15 15 15 15 14 14 15 15
26 24 24 26 30 29 21 22 21 20 19 20 18 16 17 17 16 17 17 17 17 16 16 16 15 15 15 15 16 15 16 16 16 16 16 16 15 15 15 15 15 15 15 17
22 23 26 24 30 23 20 24 23 23 20 18 20 18 16 18 21 20 18 17 16 16 16 15 15 15 16 16 16 16 16 16 16 17 16 16 15 16 15 17 17 16 17 18
24 26 23 35 29 25 18 19 21 20 23 17 17 17 17 19 22 18 15 17 17 18 18 17 16 16 17 17 16 16 17 17 18 17 17 18 18 17 18 18 18 18 18 18
30 32 27 24 26 23 20 22 18 23 20 16 16 16 18 19 17 17 18 17 16 17 18 17 18 17 17 18 17 18 18 18 17 19 20 20 20 20 19 19 19 19 20 20
26 28 29 26 25 26 20 21 19 15 14 17 18 17 18 17 16 18 18 18 18 19 19 18 18 18 19 18 17 18 19 19 20 20 21 21 21 19 19 20 22 21 21 23
20 20 20 22 21 18 20 16 16 18 17 18 18 18 17 18 18 18 18 18 18 19 18 19 18 20 20 19 17 19 19 20 21 21 21 21 20 20 20 20 22 23 23 24
19 16 19 18 17 17 16 18 18 18 18 17 17 17 18 18 18 18 19 18 18 18 18 19 19 20 21 21 19 20 20 20 20 20 21 21 21 21 21 19 19 22 24 25
14 15 18 18 16 15 14 14 15 17 18 18 17 17 17 17 18 18 18 18 18 17 18 18 18 18 19 21 20 21 20 19 20 21 21 20 20 20 21 21 22 20 22 21
13 14 16 17 14 14 14 12 16 17 16 16 17 17 17 17 17 17 18 17 17 18 18 18 18 19 21 21 21 22 20 19 20 20 20 20 21 22 22 22 24 20 19 18